Walla Walla, WA

3:50 PM PST on December 04, 2016 (GMT -0800)
Walla Walla Regional

Weather History for KALW - December, 2013

Change the Weather History Date:

Saturday, December 7, 2013

  Actual Average Record
Temperature  
Mean Temperature 10 °F 34 °F  
Max Temperature 17 °F 40 °F 61 °F (2015)
Min Temperature 3 °F 29 °F -3 °F (1972)
Degree Days  
Heating Degree Days 55 31  
Month to date heating degree days 208  
Since 1 July heating degree days 1368  
Cooling Degree Days 0 0  
Month to date cooling degree days 0  
Year to date cooling degree days 850  
Moisture  
Dew Point 3 °F    
Average Humidity 69    
Maximum Humidity 88    
Minimum Humidity 56    
Precipitation  
Precipitation 0.00 in 0.08 in 1.08 in (2015)
Month to date precipitation 0.63  
Year to date precipitation 19.01  
Snow  
Snow 0.00 in 0.20 in 6.00 in (1961)
Month to date snowfall 0.9  
Year to date snowfall 8.2  
Since 1 July snowfall 2.2  
Snow Depth -    
Sea Level Pressure  
Sea Level Pressure 30.31 in    
Wind  
Wind Speed 9 mph (SSE)    
Max Wind Speed 18 mph    
Max Gust Speed -    
Visibility 9 miles    
Events      
T = Trace of Precipitation, MM = Missing Value Source: NWS Daily Summary

Daily Weather History Graph

Daily Weather History Graph

Search for Another Location

Airport or City:

Trip Planner

Search our weather history database for the weather conditions in past years. The results will help you decide how hot, cold, wet, or windy it might be!

Date:

Astronomy

Dec. 07, 2013 Rise Set
Actual Time 7:21 AM PST 4:07 PM PST
Civil Twilight 6:47 AM PST 4:41 PM PST
Nautical Twilight 6:09 AM PST 5:19 PM PST
Astronomical Twilight 5:33 AM PST 5:56 PM PST
Moon 10:57 AM PST (12/7) 10:08 PM PST (12/7)
Length of Visible Light 9h 54m
Length of Day
8h 45m
Waxing Crescent, 30% of the Moon is Illuminated
Dec 7
Waxing Crescent
Dec 9
First Quarter
Dec 17
Full
Dec 25
Last Quarter
Jan 1
New

Hourly Weather History & Observations

Time (PST) Temp. Windchill Dew Point Humidity Pressure Visibility Wind Dir Wind Speed Gust Speed Precip Events Conditions
12:53 AM 16.0 °F 10.4 °F 12.9 °F 88% 30.14 in 7.0 mi SSE 3.5 mph - N/A   Overcast
1:13 AM 17.6 °F 10.7 °F 12.2 °F 79% 30.08 in 5.0 mi SE 4.6 mph - N/A   Overcast
1:53 AM 16.0 °F 6.3 °F 12.9 °F 88% 30.15 in 6.0 mi South 6.9 mph - N/A   Overcast
2:02 AM 15.8 °F 6.1 °F 12.2 °F 86% 30.09 in 9.0 mi South 6.9 mph - N/A   Overcast
2:11 AM 15.8 °F 5.1 °F 10.4 °F 79% 30.09 in 8.0 mi SSE 8.1 mph - N/A   Overcast
2:53 AM 15.1 °F 4.2 °F 9.0 °F 77% 30.17 in 9.0 mi SSE 8.1 mph - N/A   Overcast
3:17 AM 15.8 °F 3.4 °F 10.4 °F 79% 30.10 in 9.0 mi SSE 10.4 mph - N/A   Overcast
3:53 AM 14.0 °F 1.2 °F 8.1 °F 77% 30.17 in 10.0 mi SSE 10.4 mph - N/A   Overcast
4:53 AM 12.9 °F -0.9 °F 6.1 °F 74% 30.20 in 10.0 mi South 11.5 mph - 0.00 in   Overcast
5:01 AM 12.2 °F -2.5 °F 6.8 °F 79% 30.13 in 10.0 mi South 12.7 mph - N/A   Overcast
5:53 AM 12.9 °F -2.8 °F 6.1 °F 74% 30.22 in 10.0 mi South 15.0 mph - 0.00 in   Overcast
6:53 AM 12.0 °F -3.4 °F 5.0 °F 73% 30.26 in 10.0 mi South 13.8 mph - N/A   Overcast
7:53 AM 12.0 °F -4.5 °F 1.9 °F 64% 30.28 in 10.0 mi South 16.1 mph - N/A   Overcast
8:53 AM 10.0 °F -7.1 °F -0.0 °F 64% 30.32 in 10.0 mi SSW 16.1 mph - N/A   Overcast
9:53 AM 10.0 °F -5.2 °F -0.9 °F 61% 30.35 in 10.0 mi SSW 12.7 mph - N/A   Overcast
10:53 AM 10.9 °F -5.4 °F -0.0 °F 61% 30.38 in 10.0 mi South 15.0 mph - N/A   Mostly Cloudy
11:08 AM 10.4 °F -6.0 °F -0.4 °F 62% 30.30 in 10.0 mi South 15.0 mph - N/A   Partly Cloudy
11:53 AM 12.0 °F -5.6 °F -0.0 °F 59% 30.38 in 10.0 mi SSW 18.4 mph - N/A   Clear
12:53 PM 12.0 °F -4.0 °F -0.0 °F 59% 30.39 in 10.0 mi South 15.0 mph - N/A   Clear
1:53 PM 12.0 °F -4.5 °F -0.9 °F 56% 30.39 in 10.0 mi South 16.1 mph - N/A   Clear
2:53 PM 12.0 °F -4.0 °F -0.9 °F 56% 30.42 in 10.0 mi South 15.0 mph - N/A   Clear
3:53 PM 10.9 °F -3.4 °F -2.0 °F 56% 30.43 in 10.0 mi South 11.5 mph - N/A   Clear
4:53 PM 9.0 °F -3.2 °F -2.9 °F 59% 30.45 in 10.0 mi South 8.1 mph - N/A   Clear
5:53 PM 9.0 °F -2.2 °F -2.9 °F 59% 30.47 in 10.0 mi SE 6.9 mph - N/A   Clear
6:53 PM 6.1 °F -5.6 °F -4.0 °F 63% 30.48 in 10.0 mi ESE 6.9 mph - N/A   Clear
7:53 PM 3.9 °F -6.9 °F -4.0 °F 70% 30.48 in 10.0 mi ESE 5.8 mph - N/A   Clear
8:53 PM 6.1 °F -5.6 °F -4.0 °F 63% 30.48 in 10.0 mi ESE 6.9 mph - N/A   Clear
9:53 PM 5.0 °F -5.6 °F -5.1 °F 63% 30.49 in 10.0 mi ESE 5.8 mph - N/A   Clear
10:53 PM 5.0 °F -5.6 °F -5.1 °F 63% 30.49 in 10.0 mi ESE 5.8 mph - N/A   Clear
11:53 PM 3.9 °F -8.2 °F -5.1 °F 66% 30.50 in 10.0 mi ESE 6.9 mph - N/A   Clear